Elbow Lake, MN

11:06 AM CDT on March 25, 2017 (GMT -0500)
Elbow Lake

Weather History for KY63 - July, 2013

Change the Weather History Date:

Monday, July 29, 2013

  Actual Average (KFFM) Record (KFFM)
Temperature  
Mean Temperature 62 °F -  
Max Temperature 72 °F 81 °F 100 °F (1975)
Min Temperature 54 °F 58 °F 6 °F (1998)
Degree Days  
Heating Degree Days 2    
Growing Degree Days 12 (Base 50)    
Moisture  
Dew Point 54 °F    
Average Humidity 75    
Maximum Humidity 94    
Minimum Humidity 54    
Precipitation  
Precipitation 0.00 in - - ()
Sea Level Pressure  
Sea Level Pressure 30.07 in    
Wind  
Wind Speed 6 mph (SSE)    
Max Wind Speed 14 mph    
Max Gust Speed 18 mph    
Visibility 10 miles    
Events Rain    
Averages and records for this station are not official NWS values.
T = Trace of Precipitation, MM = Missing Value Source: NWS Daily Summary

Daily Weather History Graph

Daily Weather History Graph

Search for Another Location

Airport or City:

Trip Planner

Search our weather history database for the weather conditions in past years. The results will help you decide how hot, cold, wet, or windy it might be!

Date:

Astronomy

Jul. 29, 2013 Rise Set
Actual Time 6:03 AM CDT 8:56 PM CDT
Civil Twilight 5:28 AM CDT 9:31 PM CDT
Nautical Twilight 4:43 AM CDT 10:16 PM CDT
Astronomical Twilight 3:50 AM CDT 11:08 PM CDT
Moon No Moon Rise 2:15 PM CDT (7/29)
Length of Visible Light 16h 03m
Length of Day
14h 53m
Waning Gibbous, 50% of the Moon is Illuminated
Jul 29
Waning Gibbous
Jul 29
Last Quarter
Aug 6
New
Aug 14
First Quarter
Aug 20
Full

Hourly Weather History & Observations

Time (CDT) Temp. Dew Point Humidity Pressure Visibility Wind Dir Wind Speed Gust Speed Precip Events Conditions
12:11 AM 54.7 °F 52.9 °F 94% 30.06 in 10.0 mi ESE 3.5 mph - N/A   Clear
12:32 AM 59.0 °F 53.4 °F 82% 30.06 in 10.0 mi ESE 3.5 mph - N/A   Clear
12:52 AM 57.6 °F 52.7 °F 84% 30.06 in 10.0 mi Calm Calm - N/A   Clear
1:11 AM 58.3 °F 52.5 °F 81% 30.06 in 10.0 mi SE 3.5 mph - N/A   Clear
1:31 AM 55.4 °F 51.3 °F 86% 30.06 in 10.0 mi SE 6.9 mph - N/A   Clear
1:52 AM 56.8 °F 51.8 °F 83% 30.06 in 10.0 mi SE 4.6 mph - N/A   Clear
2:12 AM 57.2 °F 51.6 °F 82% 30.06 in 10.0 mi SE 4.6 mph - N/A   Clear
2:32 AM 55.6 °F 50.9 °F 84% 30.06 in 10.0 mi SE 4.6 mph - N/A   Clear
2:52 AM 54.7 °F 50.4 °F 85% 30.06 in 10.0 mi SE 4.6 mph - N/A   Clear
3:12 AM 55.9 °F 50.7 °F 83% 30.06 in 10.0 mi SE 5.8 mph - N/A   Clear
3:32 AM 55.4 °F 50.5 °F 84% 30.05 in 10.0 mi SE 5.8 mph - N/A   Clear
3:52 AM 55.0 °F 50.2 °F 84% 30.06 in 10.0 mi SE 4.6 mph - N/A   Clear
4:12 AM 54.5 °F 50.2 °F 85% 30.06 in 10.0 mi SE 6.9 mph - N/A   Clear
4:32 AM 54.7 °F 50.4 °F 85% 30.06 in 10.0 mi SE 5.8 mph - N/A   Clear
4:51 AM 54.5 °F 50.4 °F 86% 30.06 in 10.0 mi SE 5.8 mph - N/A   Clear
5:12 AM 54.7 °F 50.5 °F 86% 30.06 in 10.0 mi SE 4.6 mph - N/A   Clear
5:32 AM 54.1 °F 50.2 °F 86% 30.06 in 10.0 mi SE 5.8 mph - N/A   Clear
5:52 AM 54.1 °F 50.4 °F 87% 30.06 in 10.0 mi SE 5.8 mph - N/A   Clear
6:12 AM 54.5 °F 50.4 °F 86% 30.06 in 10.0 mi SE 5.8 mph - N/A   Clear
6:32 AM 54.7 °F 50.2 °F 85% 30.07 in 10.0 mi SE 5.8 mph - N/A   Clear
6:52 AM 54.9 °F 50.4 °F 85% 30.06 in 10.0 mi SE 6.9 mph - N/A   Clear
7:12 AM 55.6 °F 51.1 °F 85% 30.06 in 10.0 mi SE 6.9 mph - N/A   Clear
7:32 AM 56.8 °F 51.8 °F 83% 30.07 in 10.0 mi SE 8.1 mph - N/A   Clear
7:52 AM 58.1 °F 53.1 °F 83% 30.08 in 10.0 mi SSE 5.8 mph - N/A   Clear
8:12 AM 59.5 °F 54.0 °F 82% 30.08 in 10.0 mi SSE 9.2 mph - N/A   Clear
8:32 AM 61.0 °F 54.1 °F 78% 30.09 in 10.0 mi SSE 8.1 mph - N/A   Clear
8:52 AM 61.9 °F 54.9 °F 78% 30.09 in 10.0 mi SSE 8.1 mph - N/A   Clear
9:11 AM 64.0 °F 55.8 °F 74% 30.09 in 10.0 mi SSE 10.4 mph - N/A   Clear
9:32 AM 65.5 °F 55.6 °F 70% 30.09 in 10.0 mi SSE 10.4 mph - N/A   Clear
9:52 AM 66.4 °F 55.0 °F 67% 30.08 in 10.0 mi SSE 12.7 mph - N/A   Clear
10:12 AM 67.6 °F 55.0 °F 64% 30.08 in 10.0 mi SSE 11.5 mph - N/A   Clear
10:32 AM 68.4 °F 54.9 °F 62% 30.07 in 10.0 mi SSE 13.8 mph - N/A   Clear
10:52 AM 68.9 °F 54.7 °F 60% 30.07 in 10.0 mi SSE 13.8 mph - N/A   Clear
11:12 AM 69.6 °F 55.0 °F 60% 30.08 in 10.0 mi South 11.5 mph 17.3 mph N/A   Clear
11:32 AM 70.3 °F 54.0 °F 56% 30.08 in 10.0 mi SSE 11.5 mph 17.3 mph N/A   Scattered Clouds
11:52 AM 70.3 °F 53.2 °F 55% 30.08 in 10.0 mi South 13.8 mph 17.3 mph N/A   Scattered Clouds
12:12 PM 70.9 °F 53.4 °F 54% 30.08 in 10.0 mi SSE 11.5 mph - N/A   Scattered Clouds
12:32 PM 70.3 °F 53.8 °F 56% 30.08 in 10.0 mi SSE 12.7 mph - N/A   Mostly Cloudy
12:52 PM 70.9 °F 53.4 °F 54% 30.07 in 10.0 mi South 10.4 mph 18.4 mph N/A   Scattered Clouds
1:12 PM 70.5 °F 53.2 °F 54% 30.07 in 10.0 mi South 10.4 mph - N/A   Scattered Clouds
1:32 PM 71.4 °F 53.8 °F 54% 30.07 in 10.0 mi South 9.2 mph - N/A   Scattered Clouds
1:52 PM 70.2 °F 52.9 °F 54% 30.07 in 10.0 mi SSW 9.2 mph - N/A   Scattered Clouds
2:12 PM 69.3 °F 53.6 °F 57% 30.06 in 10.0 mi South 8.1 mph - N/A   Scattered Clouds
2:32 PM 68.4 °F 52.9 °F 58% 30.06 in 10.0 mi South 9.2 mph - N/A   Scattered Clouds
2:52 PM 68.0 °F 54.0 °F 61% 30.06 in 10.0 mi South 6.9 mph - N/A   Mostly Cloudy
3:12 PM 68.2 °F 54.5 °F 62% 30.06 in 10.0 mi SSE 6.9 mph - N/A   Overcast
3:33 PM 68.2 °F 56.5 °F 66% 30.06 in 10.0 mi South 8.1 mph - N/A Rain Light Rain
3:52 PM 66.6 °F 58.3 °F 75% 30.06 in 10.0 mi South 6.9 mph - N/A Rain Light Rain
4:12 PM 68.7 °F 56.8 °F 66% 30.06 in 10.0 mi South 5.8 mph - N/A   Mostly Cloudy
4:32 PM 68.7 °F 56.3 °F 64% 30.06 in 10.0 mi South 6.9 mph - N/A   Scattered Clouds
4:52 PM 67.3 °F 55.9 °F 67% 30.06 in 10.0 mi South 4.6 mph - N/A   Mostly Cloudy
5:13 PM 67.1 °F 57.9 °F 72% 30.07 in 10.0 mi South 4.6 mph - N/A   Light Drizzle
5:32 PM 67.1 °F 57.9 °F 72% 30.07 in 10.0 mi South 4.6 mph - N/A   Overcast
5:52 PM 66.4 °F 56.7 °F 71% 30.07 in 10.0 mi SSW 9.2 mph - N/A   Mostly Cloudy
6:12 PM 64.8 °F 58.6 °F 81% 30.07 in 10.0 mi SSW 6.9 mph - N/A Rain Light Rain
6:32 PM 64.4 °F 55.6 °F 73% 30.07 in 10.0 mi South 8.1 mph - N/A Rain Light Rain
6:53 PM 63.0 °F 55.6 °F 77% 30.07 in 10.0 mi South 3.5 mph - N/A Rain Light Rain
7:12 PM 63.1 °F 54.1 °F 72% 30.07 in 10.0 mi SE 3.5 mph - N/A   Light Drizzle
7:32 PM 63.1 °F 55.9 °F 77% 30.07 in 10.0 mi SE 5.8 mph - N/A   Overcast
7:53 PM 63.0 °F 56.1 °F 78% 30.07 in 10.0 mi SSE 5.8 mph - N/A   Overcast
8:12 PM 61.9 °F 55.4 °F 79% 30.06 in 10.0 mi SSE 6.9 mph - N/A   Overcast
8:32 PM 61.7 °F 54.0 °F 76% 30.06 in 10.0 mi SE 8.1 mph - N/A   Overcast
8:53 PM 61.7 °F 54.1 °F 76% 30.06 in 10.0 mi SE 6.9 mph - N/A   Overcast
9:12 PM 61.2 °F 53.4 °F 76% 30.06 in 10.0 mi SSE 8.1 mph - N/A   Overcast
9:32 PM 61.0 °F 53.8 °F 77% 30.06 in 10.0 mi SE 6.9 mph - N/A   Overcast
9:53 PM 60.8 °F 54.3 °F 79% 30.05 in 10.0 mi SE 6.9 mph - N/A   Overcast
10:12 PM 60.8 °F 54.7 °F 80% 30.05 in 10.0 mi ESE 5.8 mph - N/A   Overcast
10:32 PM 60.8 °F 55.2 °F 82% 30.05 in 10.0 mi ESE 6.9 mph - N/A   Overcast
10:52 PM 60.8 °F 55.8 °F 83% 30.06 in 10.0 mi ESE 6.9 mph - N/A   Overcast
11:13 PM 60.8 °F 56.3 °F 85% 30.06 in 10.0 mi SE 4.6 mph - N/A   Overcast
11:32 PM 61.0 °F 56.8 °F 86% 30.06 in 10.0 mi SE 5.8 mph - N/A   Overcast
11:52 PM 61.2 °F 57.2 °F 87% 30.06 in 10.0 mi SE 8.1 mph - N/A   Overcast